This is the latest recevied weather packets stored in our database for station/object KM4CBK. If no packets are shown the sender has not sent any weather packets the latest 10 day(s).
| Time | Temp. | Humidity | Pressure | Rain* | Wind** | Luminosity | Snow |
|---|---|---|---|---|---|---|---|
| 1777744228 | 20.56° C | 52% | 1013.3 hPa | 0 mm | - | 675 W/m² | - |
| 1777743925 | 21.11° C | 54% | 1013.2 hPa | 0 mm | - | 661 W/m² | - |
| 1777743622 | 20.56° C | 58% | 1013.1 hPa | 0 mm | - | 654 W/m² | - |
| 1777743319 | 20° C | 54% | 1013.3 hPa | 0 mm | - | 561 W/m² | - |
| 1777743017 | 20.56° C | 59% | 1013.1 hPa | 0 mm | - | 624 W/m² | - |
| 1777742714 | 20° C | 57% | 1013.2 hPa | 0 mm | - | 676 W/m² | - |
| 1777742410 | 20.56° C | 59% | 1013.3 hPa | 0 mm | - | 598 W/m² | - |
| 1777742106 | 20° C | 57% | 1013.3 hPa | 0 mm | - | 628 W/m² | - |
| 1777741804 | 19.44° C | 57% | 1013.5 hPa | 0 mm | - | 750 W/m² | - |
| 1777741500 | 20° C | 60% | 1013.5 hPa | 0 mm | - | 625 W/m² | - |
| 1777741196 | 20° C | 57% | 1013.7 hPa | 0 mm | - | 607 W/m² | - |
| 1777740893 | 20° C | 61% | 1013.6 hPa | 0 mm | - | 473 W/m² | - |
| 1777740590 | 20° C | 57% | 1013.3 hPa | 0 mm | - | 585 W/m² | - |
| 1777740286 | 20.56° C | 61% | 1013.2 hPa | 0 mm | - | 643 W/m² | - |
| 1777739983 | 20° C | 59% | 1013.5 hPa | 0 mm | - | 588 W/m² | - |
| 1777739679 | 19.44° C | 62% | 1013.7 hPa | 0 mm | - | 647 W/m² | - |
| 1777739377 | 18.89° C | 60% | 1013.5 hPa | 0 mm | - | 637 W/m² | - |
| 1777739074 | 18.89° C | 64% | 1013.6 hPa | 0 mm | - | 620 W/m² | - |
| 1777738771 | 18.89° C | 63% | 1013.6 hPa | 0 mm | - | 551 W/m² | - |
| 1777738467 | 18.89° C | 63% | 1013.7 hPa | 0 mm | - | 662 W/m² | - |
| 1777738165 | 18.89° C | 65% | 1013.7 hPa | 0 mm | - | 654 W/m² | - |
| 1777737863 | 18.33° C | 68% | 1013.5 hPa | 0 mm | - | 667 W/m² | - |
| 1777737562 | 18.33° C | 69% | 1013.6 hPa | 0 mm | - | 657 W/m² | - |
| 1777737260 | 18.33° C | 68% | 1013.7 hPa | 0 mm | - | 653 W/m² | - |
| 1777736955 | 17.78° C | 69% | 1013.9 hPa | 0 mm | - | 618 W/m² | - |
* Rain latest hour (hover to see other rain measurements)
** Current wind speed in m/s (hover to see current wind gust speed)